Regional Weather Roundup
Issued by NWS

Home | Current Version | Previous Version | Text Only | Print | Product List | Glossary On
Versions: 1 2 3 4 5 6 7 8 9 10 11 12 13 14 15 16 17 18 19 20 21 22 23 24 25 26 27 28 29 30 31 32 33 34 35 36 37 38 39 40 41 42 43 44 45 46 47 48 49 50
000
ASUS44 KBMX 020410
RWRAL

ALABAMA REGIONAL WEATHER ROUNDUP
NATIONAL WEATHER SERVICE BIRMINGHAM AL
1100 PM CDT MON SEP 01 2014

NOTE: "FAIR" INDICATES FEW OR NO CLOUDS BELOW 12,000 FEET
WITH NO SIGNIFICANT WEATHER AND/OR OBSTRUCTIONS TO VISIBILITY.

THE REMARK "TC" DENOTES TEMPERATURE IN DEGREES CELSIUS.

ALZ001>011-014-016>018-020-020500-
NORTH ALABAMA

CITY           SKY/WX    TMP DP  RH WIND       PRES   REMARKS
MUSCLE SHOALS  CLEAR     74  68  81 CALM      30.04F
HUNTSVILLE     CLEAR     77  72  84 SE5       30.04F
DECATUR        CLEAR     76  72  87 MISG      30.04F
HALEYVILLE     FAIR      72  71  96 CALM      30.08F
GADSDEN        MOCLDY    75  68  78 CALM      30.07F
$$

ALZ012-013-022-023-030>036-040>044-020500-
WEST CENTRAL ALABAMA

CITY           SKY/WX    TMP DP  RH WIND       PRES   REMARKS
TUSCALOOSA     CLEAR     78  72  81 S6        30.04S
$$

ALZ015-024>027-033>036-040>044-020500-
CENTRAL ALABAMA

CITY           SKY/WX    TMP DP  RH WIND       PRES   REMARKS
BIRMINGHAM     PTCLDY    80  70  71 CALM      30.08F
MONTGOMERY     CLEAR     80  71  74 S5        30.07S
SHELBY CO ARPT CLEAR     77  73  87 CALM      30.07F
MAXWELL AFB    CLEAR     79  73  83 SW2       30.06F
GREENVILLE     FAIR      76  72  87 CALM      30.08
$$

ALZ019-021-028-029-037-038-045>048-020500-
EAST CENTRAL ALABAMA

CITY           SKY/WX    TMP DP  RH WIND       PRES   REMARKS
ANNISTON       CLEAR     76  71  85 CALM      30.08F
ALEXANDER CITY CLEAR    N/A N/A N/A CALM      30.10F
AUBURN         CLEAR     75  66  73 S6        30.14F
$$

ALZ051>064-020500-
SOUTHWEST ALABAMA

CITY           SKY/WX    TMP DP  RH WIND       PRES   REMARKS
MOBILE         MOCLDY    80  77  90 SE7       30.07F
BROOKLEY FIELD PTCLDY    84  76  76 S7        30.07F HX  93
EVERGREEN      MOCLDY    78  74  87 S5        30.07F
$$

ALZ049-050-065>069-020500-
SOUTHEAST ALABAMA

CITY           SKY/WX    TMP DP  RH WIND       PRES   REMARKS
DOTHAN         PTCLDY    78  70  76 S3        30.14S
OZARK          CLEAR     78  72  83 S3        30.09F
TROY           CLEAR     77  73  87 CALM      30.09F
EUFAULA        FAIR      75  73  93 CALM      30.09F
$$



USA.gov is the U.S. government's official web portal to all federal, state and local government web resources and services.